This demonstration page uses our WeatherBlox Daily Observations layout. Learn more.

Left ArrowRight Arrow

41.12389, -100.76542

Hourly Observations for March 2, 2015

Temp ( °F °C ) Dew Point ( °F °C ) Humidity (%) Winds ( mph kmh ) Pressure ( in mb ) Visibility ( mi km ) Precip ( " mm )
12:53 am 00:53 Clear 22 -5.6 13 -10.6 68 68 ESE 7 11 30.44 1031 10 16 0.00 0.00
1:53 am 01:53 Clear 23 -5 12 -11.1 63 63 ESE 10 17 30.42 1030 10 16 0.00 0.00
2:53 am 02:53 Mostly Cloudy 24 -4.4 12 -11.1 60 60 ESE 10 17 30.39 1029 10 16 0.00 0.00
3:53 am 03:53 Mostly Clear 24 -4.4 12 -11.1 60 60 E 9 15 30.35 1028 10 16 0.00 0.00
4:53 am 04:53 Mostly Cloudy 24 -4.4 13 -10.6 62 62 ESE 9 15 30.34 1027 10 16 0.00 0.00
5:53 am 05:53 Partly Cloudy 24 -4.4 14 -10 65 65 ESE 7 11 30.33 1027 10 16 0.00 0.00
6:53 am 06:53 Cloudy 26 -3.3 16 -8.9 66 66 ESE 7 11 30.34 1028 10 16 0.00 0.00
7:53 am 07:53 Cloudy 30 -1.1 18 -7.8 61 61 S 14 22 30.32 1027 10 16 0.00 0.00
8:53 am 08:53 Cloudy 30 -1.1 18 -7.8 61 61 S 17 28 30.29 1026 10 16 0.00 0.00
9:53 am 09:53 Sunny 34 1.1 16 -8.9 48 48 S 18 30 30.27 1025 10 16 0.00 0.00
10:53 am 10:53 Mostly Sunny 35 1.7 12 -11.1 38 38 S 26 43 30.25 1024 10 16 0.00 0.00
11:53 am 11:53 Mostly Cloudy 38 3.3 9 -12.8 30 30 S 25 41 30.18 1022 10 16 0.00 0.00
12:53 pm 12:53 Sunny 37 3 16 -9 41 41 S 22 35 30.15 1021 10 16 0.00 0.00
1:53 pm 13:53 Partly Cloudy 40 4.4 18 -7.8 41 41 S 21 33 30.04 1017 10 16 0.00 0.00
2:53 pm 14:53 Mostly Cloudy 37 2.8 19 -7.2 48 48 S 23 37 30.00 1016 10 16 0.00 0.00
3:53 pm 15:53 Mostly Cloudy 37 2.8 20 -6.7 50 50 S 25 41 29.98 1015 10 16 0.00 0.00
4:53 pm 16:53 Cloudy 36 2.2 20 -6.7 52 52 S 17 28 29.94 1014 10 16 0.00 0.00
5:53 pm 17:53 Mostly Cloudy 33 0.6 21 -6.1 61 61 S 15 24 29.92 1013 10 16 0.00 0.00
6:17 pm 18:17 Cloudy 32 0 21 -6.1 64 64 S 15 24 29.94 1014 10 16 0.00 0.00
6:53 pm 18:53 Cloudy 31 -0.6 22 -5.6 69 69 S 14 22 29.89 1012 10 16 0.00 0.00
7:53 pm 19:53 Cloudy 31 -0.6 23 -5 72 72 S 14 22 29.85 1011 10 16 0.00 0.00
8:53 pm 20:53 Cloudy 30 -1.1 22 -5.6 72 72 SSE 15 24 29.83 1010 10 16 0.00 0.00
9:53 pm 21:53 Cloudy 30 -1.1 22 -5.6 72 72 SSE 16 26 29.78 1008 10 16 0.00 0.00
10:26 pm 22:26 Cloudy 29 -1.7 22 -5.6 75 75 SSE 9 15 29.80 1009 10 16 0.00 0.00
10:53 pm 22:53 Cloudy 29 -1.7 22 -5.6 75 75 SE 10 17 29.73 1007 10 16 0.00 0.00
11:53 pm 23:53 Cloudy 28 -2.2 22 -5.6 78 78 SE 7 11 29.70 1006 10 16 0.00 0.00

Powered by AerisWeather